Location: Warszawa
(52.2500°N, 21.0000°E)
Time: 13:33:29
(UTC+02:00)

Vanguard 2 - Pass Details

Date: 16 February 2023
Orbit: 553 x 2927 km, 32.9° (Epoch: 27 March)

Event Time Altitude Azimuth Distance (km) Brightness Sun altitude
Rises 19:08:24 0° 232° (SW) 3,948 11.8 -21.6°
Reaches altitude 10° 19:11:21 10° 218° (SW) 3,298 11.1 -22.0°
Maximum altitude 19:17:58 25° 168° (SSE) 2,974 10.3 -23.0°
Enters shadow 19:21:43 21° 142° (SE) 3,528 10.4 -23.6°
Drops below altitude 10° 19:27:17 10° 121° (ESE) 4,798 - -24.4°
Sets 19:32:45 0° 111° (ESE) 6,188 - -25.3°
